EW0910 Weather Reports


time (UTC)temp
C
wind
direction
speed
KPH
gust
KPH
rain 1hr
cm
rain 24hr
cm
rain mn
cm
humidity
%
barometer
mb
20260906183037 28 228 0.0 8.0 0.36 0.36 0.36 72 1011.1
20260906181543 32 85 3.2 24.1 0.20 0.20 0.20 61 1011.9
20260906180037 38 222 0.0 1.6 0.00 0.00 0.00 37 1011.5
20260906174532 39 73 0.0 3.2 0.00 0.00 0.00 37 1011.8
20260906173032 40 243 0.0 6.4 0.00 0.00 0.00 35 1012.2
20260906171531 40 243 0.0 4.8 0.00 0.00 0.00 37 1012.3
20260906170030 39 61 1.6 6.4 0.00 0.00 0.00 38 1012.6
20260906164525 38 215 0.0 4.8 0.00 0.00 0.00 39 1012.7
20260906163029 37 126 0.0 8.0 0.00 0.00 0.00 41 1012.8
20260906161520 37 120 1.6 6.4 0.00 0.00 0.00 44 1012.8
20260906160016 37 88 1.6 9.7 0.00 0.00 0.00 44 1012.9
20260906154512 36 101 0.0 4.8 0.00 0.00 0.00 49 1012.8
20260906153010 36 141 0.0 8.0 0.00 0.00 0.00 49 1012.7
20260906151508 35 230 0.0 1.6 0.00 0.00 0.00 52 1012.7
20260906150004 34 230 0.0 3.2 0.00 0.00 0.00 54 1012.8
20260906144606 33 230 0.0 3.2 0.00 0.00 0.00 55 1012.8
20260906143101 31 238 0.0 4.8 0.00 0.00 0.00 58 1012.7
20260906141556 31 242 0.0 3.2 0.00 0.00 0.00 61 1012.8
20260906140054 31 255 0.0 3.2 0.00 0.00 0.00 61 1012.7
20260906134552 30 232 0.0 1.6 0.00 0.00 0.00 67 1012.7
20260906133052 29 232 0.0 1.6 0.00 0.00 0.00 71 1012.7
20260906131541 26 232 0.0 1.6 0.00 0.00 0.00 78 1012.4
20260906130040 24 100 0.0 0.0 0.00 0.00 0.00 82 1012.2
20260906124537 22 101 0.0 0.0 0.00 0.00 0.00 85 1012.0
20260906123040 22 101 0.0 0.0 0.00 0.00 0.00 85 1011.9
20260906121543 21 101 0.0 0.0 0.00 0.00 0.00 84 1011.8
20260906120033 21 101 0.0 0.0 0.00 0.00 0.00 85 1011.5
20260906114537 21 101 0.0 0.0 0.00 0.00 0.00 83 1011.3
20260906113029 22 101 0.0 0.0 0.00 0.00 0.00 82 1011.4
20260906111532 22 101 0.0 0.0 0.00 0.00 0.00 81 1011.4
20260906110024 22 101 0.0 0.0 0.00 0.00 0.00 80 1011.4
20260906104521 23 101 0.0 0.0 0.00 0.00 0.00 80 1011.3
20260906103021 23 101 0.0 0.0 0.00 0.00 0.00 80 1011.2
20260906101521 23 101 0.0 0.0 0.00 0.00 0.00 80 1011.2
20260906100018 23 101 0.0 0.0 0.00 0.00 0.00 79 1011.0
20260906094516 23 101 0.0 0.0 0.00 0.00 0.00 79 1010.9
20260906093032 23 101 0.0 0.0 0.00 0.00 0.00 78 1010.9
20260906091518 23 101 0.0 1.6 0.00 0.00 0.00 78 1011.0
20260906090012 24 100 0.0 0.0 0.00 0.00 0.00 77 1010.9
20260906084508 25 101 0.0 0.0 0.00 0.00 0.00 75 1010.7
20260906083008 25 101 0.0 1.6 0.00 0.00 0.00 75 1010.7
20260906081506 25 101 0.0 1.6 0.00 0.00 0.00 74 1010.7
20260906080006 25 101 0.0 1.6 0.00 0.00 0.00 74 1010.6
20260906074505 25 101 0.0 0.0 0.00 0.00 0.00 73 1010.6
20260906073008 25 101 0.0 0.0 0.00 0.00 0.00 72 1010.5
20260906071505 25 101 0.0 0.0 0.00 0.00 0.00 71 1010.7
20260906070002 26 101 0.0 1.6 0.00 0.00 0.00 71 1010.7
20260906064501 25 101 0.0 1.6 0.00 0.00 0.00 72 1010.8
20260906063101 25 215 0.0 0.0 0.00 0.00 0.00 73 1010.9
20260906061632 25 215 0.0 0.0 0.00 0.00 0.00 73 1010.8
20260906060059 25 180 0.0 0.0 0.00 0.00 0.00 75 1011.0
20260906054557 25 132 0.0 1.6 0.00 0.00 0.00 73 1011.1
20260906053058 25 128 0.0 0.0 0.00 0.00 0.00 70 1010.9
20260906051553 25 128 0.0 0.0 0.00 0.00 0.00 67 1010.9
20260906050107 26 128 0.0 0.0 0.00 0.00 0.00 67 1010.9
20260906044549 26 128 0.0 0.0 0.00 0.00 0.00 67 1011.0
20260906043104 26 128 0.0 0.0 0.00 0.00 0.00 67 1010.9
20260906041651 26 128 0.0 0.0 0.00 0.00 0.00 66 1011.0
20260906040107 26 128 0.0 0.0 0.00 0.00 0.00 66 1011.0
20260906034548 27 128 0.0 0.0 0.00 0.00 0.00 66 1010.9
20260906033051 27 128 0.0 0.0 0.00 0.00 0.00 66 1010.8
20260906031547 27 128 0.0 0.0 0.00 0.00 0.00 64 1010.7
20260906030047 27 128 0.0 4.8 0.00 0.00 0.00 63 1010.5
20260906024545 27 139 0.0 0.0 0.00 0.00 0.00 62 1010.3
20260906023101 28 139 0.0 0.0 0.00 0.00 0.00 61 1010.2
20260906021545 28 139 0.0 0.0 0.00 0.00 0.00 60 1009.9
20260906020044 28 139 0.0 0.0 0.00 0.00 0.00 59 1009.8
20260906014555 28 139 0.0 0.0 0.00 0.00 0.00 58 1009.6
20260906013045 30 139 0.0 0.0 0.00 0.00 0.00 56 1009.7
20260906011552 30 139 0.0 0.0 0.00 0.00 0.00 55 1009.4
20260906010043 31 139 0.0 0.0 0.00 0.00 0.00 52 1009.3
20260906004542 32 139 0.0 0.0 0.00 0.00 0.00 50 1009.3
20260906003041 33 139 0.0 0.0 0.00 0.00 0.00 47 1009.3
20260906001542 35 139 0.0 0.0 0.00 0.00 0.00 44 1009.3
20260906000042 36 139 0.0 0.0 0.00 0.00 0.00 39 1009.3
20260905234551 38 139 0.0 1.6 0.00 0.00 0.00 36 1009.3
20260905233039 40 139 0.0 0.0 0.00 0.00 0.00 32 1009.2
20260905231539 41 159 0.0 3.2 0.00 0.00 0.00 31 1009.2
20260905230042 41 132 0.0 3.2 0.00 0.00 0.00 30 1009.2
20260905224539 42 215 0.0 3.2 0.00 0.00 0.00 29 1009.2
20260905223037 42 215 0.0 4.8 0.00 0.00 0.00 30 1009.2
20260905221535 41 101 0.0 4.8 0.00 0.00 0.00 30 1009.3
20260905220032 41 221 0.0 3.2 0.00 0.00 0.00 31 1009.4
20260905214531 40 116 1.6 8.0 0.00 0.00 0.00 33 1009.6
20260905213030 40 223 0.0 6.4 0.00 0.00 0.00 33 1009.6
20260905211528 40 228 0.0 8.0 0.00 0.00 0.00 32 1009.8
20260905210126 41 116 0.0 8.0 0.00 0.00 0.00 32 1010.1
20260905204524 40 229 0.0 4.8 0.00 0.00 0.00 34 1010.2
20260905203021 40 219 0.0 4.8 0.00 0.00 0.00 34 1010.6
20260905201521 41 141 0.0 6.4 0.00 0.00 0.00 33 1010.8
20260905200016 40 263 1.6 6.4 0.00 0.00 0.00 33 1011.0
20260905194513 38 183 0.0 11.3 0.00 0.00 0.00 35 1011.1
20260905193012 37 293 0.0 1.6 0.00 0.00 0.00 39 1011.3
20260905191513 38 132 0.0 9.7 0.00 0.00 0.00 37 1011.5
20260905190030 40 115 0.0 11.3 0.00 0.00 0.00 36 1011.8
20260905184510 40 79 3.2 16.1 0.00 0.00 0.00 36 1011.9